When you browse on this site, cookies collect data to enhance your experience and personalize the content and advertising you see.
Visit our Privacy Policy to learn more. By continuing to use the site, you agree to this use of cookies and data.
  • In Austria
  • List of Countries
  • For 7 days
  • Water Temperature
  • Weather Map
  • News
  • Weather Widgets
  • user-avatar
    Login

    Hourly Weather Rothenburg ob der Tauber

    Today, 18 August, Sunday

    Time Temperature Precipitation Wind Pressure Humidity
    00:00 +16°C° 0.4 mm 3 mps 721 mmHg 93%
    01:00 +16°C° 0 mm 2 mps 721 mmHg 93%
    02:00 +16°C° 0.3 mm 2 mps 721 mmHg 92%
    03:00 +16°C° 0.3 mm 2 mps 720 mmHg 91%
    04:00 +16°C° 0.3 mm 3 mps 720 mmHg 89%
    05:00 +17°C° 0.1 mm 3 mps 720 mmHg 88%
    06:00 +17°C° 0.1 mm 3 mps 720 mmHg 86%
    07:00 +18°C° 0.1 mm 3 mps 720 mmHg 84%
    08:00 +20°C° 0 mm 3 mps 720 mmHg 80%
    09:00 +22°C° 0 mm 3 mps 720 mmHg 75%
    10:00 +25°C° 0 mm 3 mps 720 mmHg 71%
    11:00 +26°C° 0 mm 4 mps 720 mmHg 67%
    12:00 +27°C° 0 mm 4 mps 720 mmHg 63%
    13:00 +28°C° 0 mm 4 mps 720 mmHg 59%
    14:00 +28°C° 0 mm 4 mps 720 mmHg 61%
    15:00 +28°C° 0 mm 4 mps 720 mmHg 62%
    16:00 +28°C° 0 mm 4 mps 721 mmHg 64%
    17:00 +26°C° 0.3 mm 3 mps 721 mmHg 71%
    18:00 +24°C° 0.3 mm 3 mps 721 mmHg 78%
    19:00 +21°C° 0.3 mm 2 mps 721 mmHg 85%
    20:00 +21°C° 0.5 mm 2 mps 721 mmHg 87%
    21:00 +20°C° 0.5 mm 2 mps 721 mmHg 90%
    22:00 +19°C° 0.5 mm 2 mps 722 mmHg 92%
    23:00 +19°C° 0.3 mm 2 mps 722 mmHg 93%

    Tomorrow, 19 August, Monday

    Time Temperature Precipitation Wind Pressure Humidity
    00:00 +18°C° 0.3 mm 2 mps 722 mmHg 93%
    01:00 +18°C° 0.3 mm 3 mps 723 mmHg 93%
    02:00 +18°C° 0.1 mm 3 mps 723 mmHg 94%
    03:00 +17°C° 0.1 mm 3 mps 723 mmHg 95%
    04:00 +17°C° 0.1 mm 3 mps 723 mmHg 95%
    05:00 +17°C° 0.1 mm 3 mps 724 mmHg 95%
    06:00 +17°C° 0.1 mm 3 mps 724 mmHg 95%
    07:00 +17°C° 0.1 mm 3 mps 724 mmHg 94%
    08:00 +18°C° 0.1 mm 3 mps 725 mmHg 88%
    09:00 +19°C° 0.1 mm 3 mps 725 mmHg 82%
    10:00 +20°C° 0.1 mm 3 mps 726 mmHg 75%
    11:00 +20°C° 0 mm 3 mps 726 mmHg 71%
    12:00 +21°C° 0 mm 3 mps 726 mmHg 66%
    13:00 +21°C° 0 mm 2 mps 726 mmHg 62%
    14:00 +23°C° 0 mm 2 mps 726 mmHg 59%
    15:00 +23°C° 0 mm 2 mps 726 mmHg 57%
    16:00 +23°C° 0 mm 2 mps 726 mmHg 55%
    17:00 +22°C° 0 mm 1 mps 726 mmHg 60%
    18:00 +21°C° 0 mm 1 mps 726 mmHg 65%
    19:00 +20°C° 0 mm 1 mps 726 mmHg 70%
    20:00 +19°C° 0 mm 1 mps 726 mmHg 73%
    21:00 +16°C° 0 mm 0 mps 726 mmHg 75%
    22:00 +15°C° 0 mm 0 mps 726 mmHg 78%
    23:00 +15°C° 0.1 mm 0 mps 726 mmHg 78%

    Day after tomorrow, 20 August, Tuesday

    Time Temperature Precipitation Wind Pressure Humidity
    00:00 +15°C° 0.1 mm 0 mps 727 mmHg 79%
    01:00 +15°C° 0.1 mm 0 mps 727 mmHg 79%
    02:00 +15°C° 0.1 mm 0 mps 727 mmHg 79%
    03:00 +15°C° 0.1 mm 0 mps 727 mmHg 78%
    04:00 +16°C° 0.1 mm 0 mps 727 mmHg 77%
    05:00 +16°C° 0 mm 0 mps 727 mmHg 78%
    06:00 +15°C° 0 mm 0 mps 728 mmHg 79%
    07:00 +15°C° 0 mm 0 mps 728 mmHg 80%
    08:00 +18°C° 0 mm 1 mps 728 mmHg 78%
    09:00 +19°C° 0 mm 1 mps 728 mmHg 75%
    10:00 +18°C° 0 mm 2 mps 728 mmHg 73%
    11:00 +19°C° 0 mm 2 mps 729 mmHg 71%
    12:00 +19°C° 0 mm 3 mps 729 mmHg 69%
    13:00 +20°C° 0 mm 3 mps 729 mmHg 67%
    14:00 +19°C° 0.4 mm 3 mps 729 mmHg 72%
    15:00 +18°C° 0.4 mm 3 mps 729 mmHg 76%
    16:00 +16°C° 0.4 mm 3 mps 729 mmHg 80%
    17:00 +16°C° 0.4 mm 3 mps 730 mmHg 83%
    18:00 +15°C° 0.4 mm 2 mps 730 mmHg 86%
    19:00 +15°C° 0.4 mm 2 mps 730 mmHg 88%
    20:00 +14°C° 0.6 mm 2 mps 731 mmHg 89%
    21:00 +14°C° 0.6 mm 2 mps 731 mmHg 90%
    22:00 +14°C° 0.6 mm 2 mps 732 mmHg 90%
    23:00 +13°C° 0.5 mm 2 mps 732 mmHg 91%

    21 August, Wednesday

    Time Temperature Precipitation Wind Pressure Humidity
    00:00 +13°C° 0.5 mm 2 mps 732 mmHg 91%
    01:00 +13°C° 0.5 mm 2 mps 732 mmHg 92%
    02:00 +13°C° 0.2 mm 2 mps 732 mmHg 92%
    03:00 +13°C° 0.2 mm 2 mps 732 mmHg 93%
    04:00 +12°C° 0.2 mm 2 mps 732 mmHg 93%
    05:00 +13°C° 0 mm 1 mps 732 mmHg 92%
    06:00 +13°C° 0 mm 1 mps 732 mmHg 91%
    07:00 +13°C° 0 mm 1 mps 732 mmHg 90%
    08:00 +15°C° 0 mm 1 mps 733 mmHg 84%
    09:00 +16°C° 0 mm 1 mps 733 mmHg 79%
    10:00 +19°C° 0 mm 1 mps 733 mmHg 74%
    11:00 +19°C° 0 mm 2 mps 732 mmHg 69%
    12:00 +20°C° 0 mm 2 mps 732 mmHg 64%
    13:00 +21°C° 0 mm 3 mps 732 mmHg 59%
    14:00 +21°C° 0.1 mm 3 mps 732 mmHg 61%
    15:00 +21°C° 0.1 mm 3 mps 731 mmHg 63%
    16:00 +20°C° 0.1 mm 3 mps 731 mmHg 65%
    17:00 +19°C° 0 mm 2 mps 731 mmHg 70%
    18:00 +18°C° 0 mm 2 mps 731 mmHg 76%
    19:00 +17°C° 0 mm 2 mps 731 mmHg 81%
    20:00 +16°C° 0 mm 2 mps 731 mmHg 84%
    21:00 +15°C° 0 mm 2 mps 731 mmHg 86%
    22:00 +14°C° 0 mm 2 mps 731 mmHg 88%
    23:00 +14°C° 0 mm 2 mps 731 mmHg 90%

    22 August, Thursday

    Time Temperature Precipitation Wind Pressure Humidity
    00:00 +13°C° 0 mm 2 mps 731 mmHg 92%
    01:00 +12°C° 0 mm 3 mps 730 mmHg 93%
    02:00 +12°C° 0 mm 3 mps 730 mmHg 94%
    03:00 +11°C° 0 mm 3 mps 730 mmHg 95%
    04:00 +11°C° 0 mm 3 mps 730 mmHg 95%
    05:00 +12°C° 0 mm 3 mps 730 mmHg 93%
    06:00 +12°C° 0 mm 3 mps 730 mmHg 91%
    07:00 +13°C° 0 mm 3 mps 730 mmHg 88%
    08:00 +16°C° 0 mm 3 mps 730 mmHg 82%
    09:00 +18°C° 0 mm 3 mps 730 mmHg 76%
    10:00 +19°C° 0 mm 3 mps 731 mmHg 70%
    11:00 +20°C° 0 mm 3 mps 730 mmHg 65%
    12:00 +21°C° 0 mm 3 mps 730 mmHg 61%
    13:00 +24°C° 0 mm 3 mps 730 mmHg 57%
    14:00 +24°C° 0 mm 3 mps 730 mmHg 57%
    15:00 +24°C° 0 mm 3 mps 730 mmHg 57%
    16:00 +24°C° 0 mm 3 mps 730 mmHg 57%
    17:00 +23°C° 0 mm 2 mps 729 mmHg 63%
    18:00 +20°C° 0 mm 2 mps 729 mmHg 69%
    19:00 +19°C° 0 mm 2 mps 729 mmHg 75%
    20:00 +18°C° 0 mm 2 mps 730 mmHg 77%
    21:00 +17°C° 0 mm 2 mps 730 mmHg 80%
    22:00 +16°C° 0 mm 2 mps 730 mmHg 82%
    23:00 +15°C° 0 mm 2 mps 730 mmHg 83%

    23 August, Friday

    Time Temperature Precipitation Wind Pressure Humidity
    00:00 +15°C° 0 mm 2 mps 730 mmHg 85%
    01:00 +14°C° 0 mm 2 mps 730 mmHg 86%
    02:00 +14°C° 0 mm 2 mps 730 mmHg 88%
    03:00 +14°C° 0 mm 2 mps 730 mmHg 89%
    04:00 +13°C° 0 mm 2 mps 730 mmHg 91%
    05:00 +14°C° 0 mm 2 mps 730 mmHg 90%
    06:00 +14°C° 0 mm 2 mps 730 mmHg 88%
    07:00 +15°C° 0 mm 2 mps 730 mmHg 87%
    08:00 +17°C° 0 mm 2 mps 730 mmHg 80%
    09:00 +19°C° 0 mm 3 mps 731 mmHg 73%
    10:00 +21°C° 0 mm 3 mps 731 mmHg 67%
    11:00 +22°C° 0 mm 3 mps 730 mmHg 63%
    12:00 +23°C° 0 mm 4 mps 730 mmHg 58%
    13:00 +25°C° 0 mm 4 mps 730 mmHg 54%
    14:00 +25°C° 0 mm 4 mps 730 mmHg 54%
    15:00 +25°C° 0 mm 4 mps 729 mmHg 54%
    16:00 +25°C° 0 mm 4 mps 729 mmHg 54%
    17:00 +22°C° 0 mm 3 mps 729 mmHg 60%
    18:00 +21°C° 0 mm 3 mps 729 mmHg 67%
    19:00 +19°C° 0 mm 3 mps 728 mmHg 73%
    20:00 +18°C° 0 mm 3 mps 728 mmHg 75%
    21:00 +17°C° 0 mm 3 mps 728 mmHg 77%
    22:00 +16°C° 0 mm 3 mps 729 mmHg 78%
    23:00 +14°C° 0 mm 3 mps 728 mmHg 82%
    Show more